When you browse on this site, cookies collect data to enhance your experience and personalize the content and advertising you see.
Visit our Privacy Policy to learn more. By continuing to use the site, you agree to this use of cookies and data.
  • In Austria
  • List of Countries
  • For 7 days
  • Water Temperature
  • Weather Map
  • News
  • Weather Widgets
  • user-avatar
    Login

    Hourly Weather Asten

    Today, 19 September, Thursday

    Time Temperature Precipitation Wind Pressure Humidity
    00:00 +8°C° 0 mm 1 mps 744 mmHg 78%
    01:00 +7°C° 0 mm 0 mps 744 mmHg 79%
    02:00 +7°C° 0 mm 0 mps 744 mmHg 80%
    03:00 +7°C° 0 mm 0 mps 744 mmHg 82%
    04:00 +7°C° 0 mm 0 mps 744 mmHg 83%
    05:00 +7°C° 0 mm 0 mps 744 mmHg 80%
    06:00 +8°C° 0 mm 0 mps 745 mmHg 78%
    07:00 +9°C° 0 mm 0 mps 745 mmHg 76%
    08:00 +11°C° 0 mm 1 mps 745 mmHg 70%
    09:00 +13°C° 0 mm 1 mps 745 mmHg 64%
    10:00 +15°C° 0 mm 1 mps 745 mmHg 57%
    11:00 +16°C° 0 mm 1 mps 745 mmHg 54%
    12:00 +16°C° 0 mm 1 mps 745 mmHg 51%
    13:00 +17°C° 0 mm 2 mps 745 mmHg 47%
    14:00 +17°C° 0 mm 2 mps 745 mmHg 47%
    15:00 +16°C° 0 mm 2 mps 744 mmHg 48%
    16:00 +16°C° 0 mm 2 mps 744 mmHg 48%
    17:00 +14°C° 0 mm 1 mps 745 mmHg 54%
    18:00 +12°C° 0 mm 1 mps 745 mmHg 61%
    19:00 +11°C° 0 mm 1 mps 746 mmHg 68%
    20:00 +10°C° 0 mm 1 mps 746 mmHg 71%
    21:00 +9°C° 0 mm 1 mps 746 mmHg 75%
    22:00 +8°C° 0 mm 1 mps 747 mmHg 78%
    23:00 +8°C° 0 mm 1 mps 747 mmHg 80%

    Tomorrow, 20 September, Friday

    Time Temperature Precipitation Wind Pressure Humidity
    00:00 +7°C° 0 mm 1 mps 747 mmHg 82%
    01:00 +7°C° 0 mm 1 mps 747 mmHg 84%
    02:00 +7°C° 0 mm 1 mps 747 mmHg 85%
    03:00 +6°C° 0 mm 1 mps 746 mmHg 86%
    04:00 +6°C° 0 mm 1 mps 746 mmHg 87%
    05:00 +7°C° 0 mm 1 mps 746 mmHg 84%
    06:00 +8°C° 0 mm 1 mps 746 mmHg 81%
    07:00 +8°C° 0 mm 1 mps 746 mmHg 79%
    08:00 +10°C° 0 mm 1 mps 746 mmHg 71%
    09:00 +12°C° 0 mm 1 mps 746 mmHg 63%
    10:00 +14°C° 0 mm 1 mps 746 mmHg 55%
    11:00 +15°C° 0 mm 2 mps 746 mmHg 51%
    12:00 +16°C° 0 mm 2 mps 745 mmHg 47%
    13:00 +18°C° 0 mm 2 mps 745 mmHg 42%
    14:00 +17°C° 0 mm 2 mps 744 mmHg 44%
    15:00 +17°C° 0 mm 2 mps 744 mmHg 46%
    16:00 +17°C° 0 mm 2 mps 744 mmHg 47%
    17:00 +15°C° 0 mm 2 mps 744 mmHg 54%
    18:00 +13°C° 0 mm 2 mps 744 mmHg 61%
    19:00 +10°C° 0 mm 2 mps 744 mmHg 68%
    20:00 +9°C° 0 mm 2 mps 744 mmHg 69%
    21:00 +9°C° 0 mm 2 mps 744 mmHg 70%
    22:00 +8°C° 0 mm 2 mps 745 mmHg 70%
    23:00 +8°C° 0 mm 2 mps 744 mmHg 71%

    Day after tomorrow, 21 September, Saturday

    Time Temperature Precipitation Wind Pressure Humidity
    00:00 +8°C° 0 mm 2 mps 744 mmHg 71%
    01:00 +7°C° 0 mm 2 mps 744 mmHg 72%
    02:00 +7°C° 0 mm 2 mps 744 mmHg 73%
    03:00 +7°C° 0 mm 2 mps 744 mmHg 74%
    04:00 +6°C° 0 mm 2 mps 743 mmHg 76%
    05:00 +7°C° 0 mm 2 mps 743 mmHg 75%
    06:00 +7°C° 0 mm 2 mps 743 mmHg 74%
    07:00 +8°C° 0 mm 2 mps 743 mmHg 73%
    08:00 +10°C° 0 mm 2 mps 743 mmHg 66%
    09:00 +14°C° 0 mm 2 mps 742 mmHg 59%
    10:00 +16°C° 0 mm 2 mps 742 mmHg 52%
    11:00 +18°C° 0 mm 3 mps 742 mmHg 50%
    12:00 +19°C° 0 mm 3 mps 741 mmHg 48%
    13:00 +20°C° 0 mm 3 mps 741 mmHg 46%
    14:00 +20°C° 0 mm 3 mps 741 mmHg 48%
    15:00 +21°C° 0 mm 3 mps 740 mmHg 50%
    16:00 +21°C° 0 mm 2 mps 740 mmHg 51%
    17:00 +18°C° 0 mm 2 mps 740 mmHg 58%
    18:00 +16°C° 0 mm 2 mps 740 mmHg 64%
    19:00 +14°C° 0 mm 2 mps 739 mmHg 70%
    20:00 +13°C° 0 mm 2 mps 739 mmHg 70%
    21:00 +12°C° 0 mm 2 mps 739 mmHg 70%
    22:00 +12°C° 0 mm 2 mps 739 mmHg 70%
    23:00 +10°C° 0 mm 2 mps 739 mmHg 72%

    22 September, Sunday

    Time Temperature Precipitation Wind Pressure Humidity
    00:00 +10°C° 0 mm 2 mps 738 mmHg 74%
    01:00 +9°C° 0 mm 2 mps 738 mmHg 75%
    02:00 +10°C° 0 mm 1 mps 738 mmHg 77%
    03:00 +10°C° 0 mm 1 mps 738 mmHg 78%
    04:00 +9°C° 0 mm 1 mps 737 mmHg 79%
    05:00 +10°C° 0 mm 1 mps 737 mmHg 78%
    06:00 +10°C° 0 mm 1 mps 737 mmHg 78%
    07:00 +9°C° 0 mm 0 mps 737 mmHg 77%
    08:00 +13°C° 0 mm 1 mps 737 mmHg 70%
    09:00 +15°C° 0 mm 1 mps 737 mmHg 62%
    10:00 +18°C° 0 mm 1 mps 737 mmHg 55%
    11:00 +20°C° 0 mm 1 mps 736 mmHg 53%
    12:00 +21°C° 0 mm 1 mps 736 mmHg 51%
    13:00 +22°C° 0 mm 1 mps 735 mmHg 49%
    14:00 +22°C° 0 mm 1 mps 735 mmHg 53%
    15:00 +21°C° 0 mm 1 mps 735 mmHg 56%
    16:00 +21°C° 0 mm 1 mps 734 mmHg 60%
    17:00 +20°C° 0 mm 1 mps 734 mmHg 63%
    18:00 +18°C° 0 mm 1 mps 734 mmHg 67%
    19:00 +16°C° 0 mm 1 mps 734 mmHg 71%
    20:00 +15°C° 0 mm 1 mps 734 mmHg 72%
    21:00 +15°C° 0 mm 1 mps 734 mmHg 73%
    22:00 +14°C° 0 mm 1 mps 734 mmHg 73%
    23:00 +14°C° 0 mm 1 mps 734 mmHg 75%

    23 September, Monday

    Time Temperature Precipitation Wind Pressure Humidity
    00:00 +13°C° 0 mm 0 mps 733 mmHg 77%
    01:00 +12°C° 0 mm 0 mps 733 mmHg 79%
    02:00 +13°C° 0 mm 1 mps 733 mmHg 80%
    03:00 +13°C° 0 mm 1 mps 734 mmHg 81%
    04:00 +13°C° 0 mm 2 mps 734 mmHg 83%
    05:00 +13°C° 0 mm 3 mps 734 mmHg 85%
    06:00 +14°C° 0 mm 3 mps 734 mmHg 87%
    07:00 +15°C° 0 mm 4 mps 735 mmHg 89%
    08:00 +15°C° 0.1 mm 4 mps 735 mmHg 89%
    09:00 +14°C° 0.1 mm 5 mps 735 mmHg 89%
    10:00 +14°C° 0.1 mm 6 mps 736 mmHg 89%
    11:00 +14°C° 0.2 mm 6 mps 736 mmHg 89%
    12:00 +14°C° 0.2 mm 6 mps 736 mmHg 89%
    13:00 +13°C° 0.2 mm 6 mps 736 mmHg 89%
    14:00 +13°C° 0.5 mm 5 mps 736 mmHg 91%
    15:00 +13°C° 0.5 mm 4 mps 736 mmHg 92%
    16:00 +13°C° 0.5 mm 3 mps 736 mmHg 94%
    17:00 +13°C° 0.2 mm 3 mps 736 mmHg 93%
    18:00 +14°C° 0.2 mm 2 mps 736 mmHg 93%
    19:00 +13°C° 0.2 mm 2 mps 736 mmHg 93%
    20:00 +13°C° 0.1 mm 2 mps 737 mmHg 93%
    21:00 +13°C° 0.1 mm 2 mps 737 mmHg 93%
    22:00 +12°C° 0.1 mm 3 mps 737 mmHg 94%
    23:00 +13°C° 0.1 mm 2 mps 737 mmHg 94%

    24 September, Tuesday

    Time Temperature Precipitation Wind Pressure Humidity
    00:00 +12°C° 0.1 mm 2 mps 737 mmHg 95%
    01:00 +12°C° 0.1 mm 2 mps 737 mmHg 96%
    02:00 +12°C° 0.1 mm 2 mps 737 mmHg 96%
    03:00 +10°C° 0.1 mm 2 mps 737 mmHg 96%
    04:00 +10°C° 0.1 mm 3 mps 737 mmHg 96%
    05:00 +10°C° 0 mm 3 mps 737 mmHg 95%
    06:00 +10°C° 0 mm 3 mps 738 mmHg 95%
    07:00 +10°C° 0 mm 3 mps 738 mmHg 94%
    08:00 +12°C° 0 mm 3 mps 738 mmHg 88%
    09:00 +13°C° 0 mm 4 mps 738 mmHg 82%
    10:00 +15°C° 0 mm 4 mps 738 mmHg 75%
    11:00 +17°C° 0.1 mm 4 mps 738 mmHg 70%
    12:00 +17°C° 0.1 mm 5 mps 737 mmHg 64%
    13:00 +20°C° 0.1 mm 5 mps 737 mmHg 58%
    14:00 +19°C° 0.1 mm 4 mps 737 mmHg 60%
    15:00 +19°C° 0.1 mm 4 mps 737 mmHg 61%
    16:00 +19°C° 0.1 mm 3 mps 736 mmHg 62%
    17:00 +17°C° 0 mm 3 mps 737 mmHg 71%
    18:00 +16°C° 0 mm 2 mps 737 mmHg 80%
    19:00 +14°C° 0 mm 1 mps 737 mmHg 89%
    20:00 +14°C° 0 mm 1 mps 737 mmHg 87%
    21:00 +14°C° 0 mm 1 mps 737 mmHg 86%
    22:00 +14°C° 0 mm 1 mps 737 mmHg 85%
    23:00 +14°C° 0 mm 1 mps 737 mmHg 84%
    Show more